Reflectivity
-20 -20 -20 -20 -20 -20 -20 -20 -20 -20 -20 -20 -20 -20 -20 -20 -20 -20 -20 -20 -20 -20 -20 -20 -20 -20 -20 -20 -20 -20 -20 -20 -20 -20 -20 -20 -20 -20 -20 -20 -20 -20 -20
-20 -20 -20 -20 -20 -20 -20 -20 -20 -20 -20 -20 -20 -20 -20 -20 -20 -20 -20 -20 -20 -6 -20 -20 -20 -20 -20 -20 -20 -20 -20 -20 -20 -20 -20 -20 -20 -20 -20 -20 -20 -20 -20
-20 -20 -20 -20 -20 -20 -20 -20 -20 -20 -20 -20 -20 -20 -20 -20 -20 -20 -20 -20 -20 -20 1 -20 -20 -20 -20 -20 -20 -20 -20 -20 -20 -20 -20 -20 -20 -20 -20 -20 -20 -20 -20
-20 -20 -20 -20 -20 -20 -20 -20 -20 -20 -20 -20 -20 -20 -20 4 16 -4 -20 -7 -20 -20 -20 -12 4 -8 -20 -20 -20 -20 -20 -20 -20 -20 -20 -20 -20 -20 -20 -20 -20 -20 -20
-20 -20 -20 -20 -20 -20 -20 -20 -20 -12 11 8 -19 -14 -4 -10 -4 4 -13 -13 -16 -20 -20 -13 4 -20 -20 3 -20 -20 -20 -20 -20 -20 -20 -20 -20 -20 -20 -20 -20 -20 -20
-20 -4 -20 -12 -20 -19 -20 11 -18 13 -20 -20 -20 -20 -20 -20 -20 -20 -20 -20 -20 -20 -20 -20 -20 -20 -20 12 13 -3 -1 -12 -20 -20 -20 -20 -20 -20 -20 -20 -20 -20 -20
6 2 -20 -2 -20 -20 -20 -20 -20 -20 -20 -20 -20 -20 -20 -20 -20 -20 -20 -20 -20 -20 -20 -20 -20 -20 -20 -20 -20 -20 12 -20 -20 -20 -20 -20 -20 5 -20 -20 -20 -20 -20
-20 1 -20 -20 -20 -20 -20 -20 -20 -20 -20 -20 -20 -20 -20 -20 -20 -20 -20 -20 -20 -20 -20 -20 -20 -20 -20 -20 -20 -20 -20 -20 -20 -20 -20 -19 -20 10 -14 -19 -20 -20 -20
7 4 -20 -20 -20 -20 -20 -20 -20 -20 -20 -20 -20 -20 -20 -20 -20 -20 -20 -20 -20 -20 -20 -20 -20 -20 -20 -20 -20 -20 -20 -20 -20 -20 -20 1 3 -16 11 -20 -20 -20 3
-20 -20 -20 -20 -20 -20 -20 -20 -20 -20 -20 -20 -20 -20 -20 -20 -20 -20 -20 -20 -20 -20 -20 -20 -20 -20 -20 -20 -20 -20 -20 -20 -20 -20 -20 -20 11 17 15 18 -19 -2 -9
-20 -20 -20 -20 -20 -20 -20 -20 -20 -20 -20 -20 -20 -20 -20 -20 -20 -20 -20 -20 -20 -20 -20 -20 -20 -20 -20 -20 -20 -20 -20 -20 -20 -20 -20 -13 16 10 29 11 -11 -7 -15
-20 -20 -20 -20 -20 -20 -20 -20 -20 -20 -20 -20 -20 -20 -20 -20 -20 -20 -20 -20 -20 -20 -20 -20 -20 -20 -20 -20 -20 -20 -20 -20 -20 -20 -20 -20 -7 -10 4 -2 13 -1 4
-20 -20 -20 -20 -20 -20 -20 -20 -20 -20 -20 -20 -20 -20 -20 -20 -20 -20 -20 -20 -20 -20 -20 -20 -20 -20 -20 -20 -20 -20 -20 -20 -20 -20 -20 -20 -20 -19 -20 -20 -2 14 13
-20 -20 -20 -20 -20 -20 -20 -20 -20 -20 -20 -20 -20 -20 -20 -20 -20 -20 -20 -20 -20 -20 -20 -20 -20 -20 -20 -20 -20 -20 -20 -20 -20 -20 -20 -20 -20 -20 -20 -20 -19 -19 -0
-20 -20 -20 -20 -20 -20 -20 -20 -20 -20 -20 -20 -20 -20 -20 -20 -20 -20 -20 -20 -20 -20 -20 -20 -20 -20 -20 -20 -20 -20 -20 -20 -20 -20 -20 -20 -20 -20 -20 -20 -20 -20 -20
-20 -20 -20 -20 -20 -20 -20 -20 -20 -20 -20 -20 -20 -20 -20 -20 -20 -20 -20 -20 -20 -20 -20 -20 -20 -20 -20 -20 -20 -20 -20 -20 -20 -20 -20 -20 -20 -20 -20 -20 -20 -20 -20
-20 -20 -20 -20 -20 -20 -20 -20 -20 -20 -20 -20 -20 -20 -20 -20 -20 -20 -20 -20 -20 -20 -20 -20 -20 -20 -20 -20 -20 -20 -20 -20 -20 -20 -20 -20 -20 -20 -6 -20 -20 -20 -20
-20 -20 -20 -20 -20 -20 -20 -20 -20 -20 -20 -20 -20 -20 -20 -20 -20 -20 -20 -20 -20 -20 -20 -20 -20 -20 -20 -20 -20 -20 -20 -20 -20 -20 -20 -20 -20 -20 -10 -20 -20 -20 -20
-20 -20 -20 -20 -20 -20 -20 -20 -20 -20 -20 -20 -20 -20 -20 -20 -20 -20 -20 -20 -20 -20 -20 -20 -20 -20 -20 -20 -20 -20 -20 -20 -20 -20 -20 -20 -20 -20 -20 -20 -20 -20 -20
-20 -20 -20 -20 -20 -20 -20 -20 -20 -20 -20 -20 -20 -20 -20 -20 -20 -20 -20 -20 -20 -20 -20 -20 -20 -20 -20 -20 -20 -20 -20 -20 -20 -20 -20 -20 -20 -20 -20 -20 -20 -20 -1
-20 -20 -20 -20 -20 -20 -20 -20 -20 -20 -20 -20 -20 -20 -20 -20 -20 -20 -20 -20 -20 -20 -20 -20 -20 -20 -20 -20 -20 -20 -20 -20 -20 -20 -20 -20 -20 -20 -20 -20 -20 -1 9
-20 -20 -20 -20 -20 -20 -20 -20 -20 -20 -20 -20 -20 -20 -20 -20 -20 -20 -20 -20 -20 -20 -20 -20 -20 -20 -20 -20 -20 -20 -20 -20 -20 -20 -20 -20 -20 -20 -20 -20 -15 10 12
-20 -20 -20 -20 -20 -20 -20 -20 -20 -20 -20 -20 -20 -20 -20 -20 -20 -20 -20 -20 -20 -20 -20 -20 -20 -20 -20 -20 -20 -10 -20 -20 -20 -20 -20 -20 -20 -19 -19 -6 -1 -10 10
-20 -20 -20 -20 -20 -20 -20 -20 -20 -20 -20 -20 -20 -20 -20 -20 -20 -20 -20 -20 -20 -20 -20 -20 -20 -20 -20 -20 -20 -20 3 -20 -20 -20 -20 -20 -20 -18 -20 1 0 -20 6
-20 -20 -20 -20 -20 -20 -20 -20 -20 -20 -20 -20 -20 -20 -20 -20 -20 -20 -20 -20 -20 -20 -20 -20 -20 -20 -20 -20 -20 -20 -0 4 9 -20 -20 -20 -20 -20 -20 -20 -20 -20 -20
-20 -20 -20 -20 -20 -20 -20 -20 -20 -20 -20 -20 -20 -20 -20 -20 -20 -20 -20 -20 -20 -20 -20 -20 -20 -20 -20 -20 -20 -20 -20 -20 -14 -19 -20 -15 -20 -20 -20 -20 -19 -20 -20
Wind_Speed
10 11 13 12 10 10 10 9 9 8 8 7 7 8 9 8 8 9 9 9 10 5 7 6 6 6 6 5 5 3 3 4 3 3 3 2 1 2 3 5 7 6 5
15 12 12 11 11 10 10 9 8 7 7 7 7 7 7 8 8 8 8 9 8 7 4 4 5 5 5 5 5 2 2 2 2 2 4 5 6 5 3 2 4 4 4
16 12 11 11 10 10 10 9 8 6 6 6 6 7 7 7 7 7 7 7 8 8 5 3 3 4 5 4 4 3 3 4 3 4 8 6 6 10 7 4 2 2 2
15 12 11 11 10 9 9 8 7 5 5 6 6 6 7 8 8 8 8 9 9 9 8 8 7 7 6 6 5 6 6 6 5 6 5 9 6 10 5 4 4 5 4
14 12 13 11 10 9 8 7 6 6 6 8 9 10 10 10 10 10 9 10 10 10 10 9 9 8 9 9 8 9 9 8 7 6 7 8 5 3 4 2 4 7 7
14 13 11 10 9 8 6 7 8 10 10 10 9 10 10 9 9 9 9 9 9 9 9 10 10 10 11 10 10 11 11 9 7 6 7 9 6 7 8 5 6 8 9
12 11 9 11 10 10 10 10 10 10 9 9 9 9 9 9 9 9 8 9 9 9 9 9 10 10 10 11 11 11 11 9 6 6 7 8 5 13 11 8 7 9 10
12 11 9 11 12 10 10 10 10 9 8 8 8 8 8 7 6 7 7 8 10 11 11 11 11 11 11 11 11 11 9 8 8 6 8 7 9 7 11 10 9 10 11
10 10 9 7 9 11 10 9 9 8 6 6 6 5 5 4 4 3 5 7 10 11 12 12 12 12 13 14 14 13 11 9 5 6 9 5 8 12 14 9 9 11 13
7 7 7 7 8 8 6 6 6 5 2 1 0 3 6 6 8 3 3 6 8 9 11 12 12 13 14 15 16 15 13 11 7 8 8 7 10 14 11 10 11 12 14
6 6 4 5 5 6 7 5 5 5 4 4 5 6 7 2 4 6 2 4 6 8 11 11 12 13 13 13 16 16 12 4 7 6 5 12 12 12 9 9 12 12 12
7 5 5 5 3 5 2 2 3 3 3 3 4 5 4 5 3 4 6 7 8 10 12 12 13 15 12 4 4 6 3 6 4 4 3 7 6 4 4 7 11 8 6
8 4 6 4 3 3 3 3 2 2 3 3 6 5 5 4 4 4 4 4 4 5 3 6 6 4 6 5 5 5 5 5 4 4 6 4 3 6 6 7 10 10 9
8 7 5 5 4 3 2 2 3 3 2 3 3 6 4 3 5 5 4 5 4 4 6 5 4 6 7 7 7 6 6 4 3 3 4 4 4 4 4 7 9 10 10
7 7 6 4 4 2 2 1 2 2 3 3 4 4 3 4 4 4 4 4 4 4 4 5 5 5 6 7 6 6 6 6 5 3 2 4 3 1 4 5 7 8 9
7 8 7 5 4 2 1 2 2 3 2 3 2 2 4 3 3 4 4 5 4 4 5 5 5 5 5 5 6 7 6 5 5 4 3 1 5 3 5 4 5 6 7
7 9 8 6 5 4 3 1 2 1 1 3 1 2 3 3 3 4 4 4 4 4 6 5 5 5 7 6 6 6 5 7 5 5 3 3 1 6 6 5 5 6 8
8 9 8 6 5 4 3 2 1 1 1 2 1 2 2 3 3 4 4 4 4 4 4 4 5 5 6 6 5 5 5 5 5 5 3 4 4 4 4 5 7 8 10
6 8 8 7 7 6 4 2 1 1 2 1 2 2 2 3 3 3 3 4 4 4 4 3 3 4 5 6 7 7 6 3 3 3 4 5 5 4 3 2 10 10 11
7 7 9 7 7 7 4 3 2 1 2 2 2 2 2 2 2 2 4 4 4 4 4 3 2 4 4 4 8 8 6 3 2 1 2 3 4 3 3 5 3 4 8
3 6 6 8 7 4 2 2 2 2 3 2 3 2 3 3 3 2 3 4 4 3 5 4 2 4 4 4 4 6 4 5 1 2 1 2 1 3 5 5 4 3 2
3 5 4 7 7 4 2 1 2 0 1 1 1 2 4 4 5 3 3 4 4 3 5 5 3 3 3 5 3 3 4 4 5 3 2 2 2 3 4 5 3 3 3
3 3 5 4 7 4 3 3 1 2 2 2 3 3 5 5 4 4 5 5 5 3 3 3 3 2 2 4 4 1 4 3 5 4 5 4 5 3 4 4 3 2 2
2 2 2 4 6 4 5 2 3 3 2 3 2 2 3 5 6 5 4 5 5 3 4 4 2 1 1 3 3 3 2 2 2 5 4 5 5 6 3 2 2 3 2
5 2 2 5 4 3 4 3 2 2 2 2 3 5 5 5 7 6 5 5 5 4 4 4 3 4 2 2 2 2 4 3 4 4 4 5 5 5 3 2 3 2 3
3 3 3 4 3 4 4 3 4 4 5 4 4 4 4 3 4 5 6 6 6 5 5 4 5 5 5 4 3 3 3 3 3 3 7 5 5 5 3 4 2 3 3
Wind_Direction
116 119 122 123 119 112 105 98 92 87 83 78 67 57 53 45 36 31 30 28 19 39 37 35 33 24 19 21 13 34 39 36 36 29 8 344 38 72 37 7 2 49 38
124 122 127 126 121 115 107 101 96 88 78 72 65 56 42 37 33 26 25 26 22 12 16 26 20 15 12 3 8 20 353 2 343 305 293 275 243 181 132 23 1 5 15
119 122 128 122 120 117 111 105 99 91 81 66 48 37 28 20 15 11 15 19 16 12 359 354 353 352 347 348 333 322 303 302 292 287 292 276 215 216 160 179 242 294 314
123 140 128 125 126 121 113 105 95 84 71 56 37 22 18 13 13 25 21 8 1 0 3 352 336 318 308 308 303 286 285 281 269 278 285 277 273 188 180 188 240 257 261
110 115 123 132 128 121 113 102 80 68 66 59 47 35 28 24 24 25 22 17 8 1 351 339 327 313 312 294 283 283 282 277 267 262 263 267 269 167 198 220 267 273 258
98 100 112 127 122 113 104 97 75 70 61 55 49 41 36 32 30 25 21 18 11 8 3 355 348 349 351 325 295 281 275 271 271 264 260 258 213 188 198 230 266 280 279
103 110 101 110 107 99 88 79 71 64 61 55 51 42 35 31 30 28 23 18 7 359 352 346 342 341 340 338 335 325 297 286 273 270 282 288 244 218 223 225 249 266 271
105 107 98 87 90 88 84 81 78 74 66 57 47 36 23 18 15 12 8 8 357 347 342 337 334 330 325 322 321 322 322 309 278 261 258 268 278 278 213 220 239 261 269
106 119 125 122 101 90 84 85 85 80 70 58 42 20 341 317 310 2 359 17 355 339 333 329 324 321 317 314 311 307 300 302 291 271 276 266 254 290 255 234 243 261 266
94 89 108 147 163 143 120 107 109 104 106 99 115 312 303 284 258 259 11 348 335 323 316 311 309 307 302 298 292 282 277 282 269 257 255 256 250 255 257 267 268 283 285
96 95 85 68 40 77 139 160 162 166 206 225 248 259 305 346 33 9 219 295 301 299 302 298 292 295 289 288 285 272 263 258 259 261 258 240 243 274 291 285 300 305 293
133 125 115 86 61 71 52 117 141 43 5 38 26 0 354 349 14 325 299 270 286 281 280 298 281 282 287 269 308 329 253 261 274 278 293 237 205 223 317 313 304 306 303
142 134 110 100 75 51 67 315 82 75 358 24 19 18 354 1 3 3 346 356 332 338 299 336 334 329 316 305 292 284 295 305 301 305 313 9 97 47 344 318 317 318 315
139 141 132 130 115 53 336 39 46 89 6 48 17 22 8 357 2 358 353 339 355 334 339 332 326 311 324 312 316 308 294 292 286 293 303 96 72 47 360 326 301 306 309
152 135 143 128 117 109 26 339 79 77 72 18 48 16 5 10 358 349 335 336 337 350 338 334 320 320 316 314 302 304 309 300 298 293 316 157 128 87 33 345 319 317 319
149 144 148 147 132 158 77 3 68 47 64 62 30 52 4 24 5 351 327 333 343 360 330 323 319 323 315 315 309 314 309 312 322 331 288 183 171 107 71 29 5 347 343
160 157 157 152 161 167 159 18 50 144 88 104 11 29 15 22 1 335 328 331 347 338 324 320 328 342 328 317 315 322 332 324 321 324 351 19 117 115 92 69 37 19 6
150 151 157 150 156 179 157 199 63 45 5 132 112 296 28 2 1 344 337 335 338 334 318 345 353 339 322 318 321 320 313 304 329 318 4 69 46 73 88 87 71 40 19
163 151 153 149 172 192 167 130 64 47 298 190 242 245 114 326 350 355 327 317 343 323 321 0 353 333 323 321 327 323 302 303 344 334 61 74 77 42 44 102 91 54 25
166 163 159 162 184 174 163 167 211 180 263 281 289 279 330 265 280 349 311 317 322 324 325 336 4 325 322 317 328 305 295 289 267 44 54 97 111 90 51 57 147 29 14
178 161 168 159 192 151 145 188 210 206 216 224 232 244 286 303 306 318 305 317 322 324 310 315 330 349 324 324 325 328 297 226 137 152 154 76 140 130 76 81 45 356 348
206 187 199 170 169 157 169 129 87 239 277 224 301 292 257 252 269 269 296 304 306 318 323 327 352 350 321 342 323 309 332 336 351 313 98 32 23 101 91 81 67 19 16
183 179 182 179 151 144 128 89 356 347 351 322 271 258 253 239 244 251 261 276 284 289 285 299 310 57 308 311 337 3 349 328 325 338 6 355 323 79 131 122 133 78 11
171 110 145 149 137 147 145 191 216 211 244 247 260 254 287 273 264 249 251 260 271 271 278 276 312 232 194 311 325 81 315 277 328 326 329 332 14 7 86 210 213 143 106
93 115 116 122 140 163 164 207 276 275 268 283 297 285 280 275 257 237 223 247 268 270 260 261 286 284 225 212 233 307 297 288 256 251 289 315 342 336 308 339 219 147 120
125 133 145 150 195 196 190 228 224 265 289 303 305 311 298 292 295 266 225 217 237 255 263 255 250 254 256 238 230 226 249 266 294 289 291 294 277 284 331 288 213 151 140